AAL1386 KDCA-KBOS

Flight info

Callsign AAL1386
Flight time N/A
Altitude 27000
Route SOOKI6 SWANN BROSS Q419 JFK ROBUC3
Aircraft B38M/M-SDE1FGHILORVWXY/HB1

Departure

Time 2026-05-05 00:33
Airport Ronald Reagan Washington National Airport (KDCA)

Arrival

Time N/A
Airport Boston Logan International Airport (KBOS)
Time Latitude Longitude Altitude Speed Heading
2026-05-04 23:44 38.85393 -77.04079 23 ft 0 kts 302°
2026-05-05 00:12 38.85382 -77.04059 27 ft 4 kts 308°
2026-05-05 00:13 38.85364 -77.04034 26 ft 4 kts 323°
2026-05-05 00:13 38.85341 -77.04019 23 ft 4 kts 356°
2026-05-05 00:13 38.85325 -77.04021 25 ft 0 kts 33°
2026-05-05 00:29 38.85341 -77.04011 25 ft 10 kts 21°
2026-05-05 00:29 38.85417 -77.04005 24 ft 11 kts 356°
2026-05-05 00:29 38.85493 -77.04016 24 ft 11 kts 349°
2026-05-05 00:30 38.85566 -77.04032 24 ft 11 kts 353°
2026-05-05 00:30 38.85637 -77.04042 24 ft 10 kts 354°
2026-05-05 00:30 38.85707 -77.04050 27 ft 10 kts 356°
2026-05-05 00:30 38.85775 -77.04057 27 ft 10 kts 356°
2026-05-05 00:31 38.85844 -77.04064 28 ft 11 kts 356°
2026-05-05 00:31 38.85926 -77.04055 25 ft 12 kts 12°
2026-05-05 00:31 38.86006 -77.04023 26 ft 12 kts 28°
2026-05-05 00:31 38.86070 -77.03958 24 ft 12 kts 50°
2026-05-05 00:32 38.86066 -77.03873 23 ft 11 kts 149°
2026-05-05 00:32 38.86040 -77.03864 24 ft 0 kts 172°
2026-05-05 00:33 38.85879 -77.03847 28 ft 62 kts 176°
2026-05-05 00:33 38.85171 -77.03775 25 ft 140 kts 176°
2026-05-05 00:33 38.84025 -77.03599 380 ft 176 kts 173°
2026-05-05 00:33 38.82815 -77.03417 986 ft 180 kts 176°
2026-05-05 00:34 38.81492 -77.03182 1540 ft 205 kts 176°
2026-05-05 00:34 38.80040 -77.02883 2039 ft 217 kts 175°
2026-05-05 00:34 38.79032 -77.02668 2356 ft 226 kts 174°
2026-05-05 00:34 38.78753 -77.02608 2446 ft 227 kts 175°
2026-05-05 00:35 38.78399 -77.02531 2547 ft 228 kts 174°
2026-05-05 00:35 38.77998 -77.02444 2666 ft 230 kts 174°